Time,TemperatureF,DewpointF,PressureIn,WindDirection,WindDirectionDegrees,WindSpeedMPH,WindSpeedGustMPH,Humidity,HourlyPrecipIn,Conditions,Clouds,dailyrainin,SoftwareType,DateUTC
2013-07-12 00:01:00,74.8,51.8,29.59,North,10,4.0,8.1,44,0.00,,,0.00,WUHU216WMR968SP,2013-07-12 05:01:00,
2013-07-12 00:06:00,74.5,51.8,29.59,NNW,338,0.0,9.6,43,0.00,,,0.00,WUHU216WMR968SP,2013-07-12 05:06:00,
2013-07-12 00:11:00,73.9,50.0,29.59,NNE,19,4.0,9.6,44,0.00,,,0.00,WUHU216WMR968SP,2013-07-12 05:11:00,
2013-07-12 00:16:00,73.6,51.8,29.59,North,6,2.5,5.8,45,0.00,,,0.00,WUHU216WMR968SP,2013-07-12 05:16:00,
2013-07-12 00:21:00,73.6,51.8,29.59,NNW,333,0.0,5.8,45,0.00,,,0.00,WUHU216WMR968SP,2013-07-12 05:21:00,
2013-07-12 00:26:00,73.8,51.8,29.59,NNE,17,2.2,5.8,45,0.00,,,0.00,WUHU216WMR968SP,2013-07-12 05:26:00,
2013-07-12 00:31:00,73.8,51.8,29.59,NNW,342,0.0,5.8,45,0.00,,,0.00,WUHU216WMR968SP,2013-07-12 05:31:00,
2013-07-12 00:36:00,73.6,51.8,29.59,NNE,21,3.1,5.4,45,0.00,,,0.00,WUHU216WMR968SP,2013-07-12 05:36:00,
2013-07-12 00:41:00,73.4,51.8,29.59,North,7,2.2,5.8,45,0.00,,,0.00,WUHU216WMR968SP,2013-07-12 05:41:00,
2013-07-12 00:46:00,73.0,51.8,29.59,North,357,0.0,5.8,45,0.00,,,0.00,WUHU216WMR968SP,2013-07-12 05:46:00,
2013-07-12 00:51:00,72.5,51.8,29.59,NNE,27,0.0,3.6,46,0.00,,,0.00,WUHU216WMR968SP,2013-07-12 05:51:00,
2013-07-12 00:56:00,72.3,50.0,29.59,NNE,22,2.7,6.3,47,0.00,,,0.00,WUHU216WMR968SP,2013-07-12 05:56:00,
2013-07-12 01:01:00,72.1,50.0,29.59,NNW,328,3.1,6.3,47,0.00,,,0.00,WUHU216WMR968SP,2013-07-12 06:01:00,
2013-07-12 01:06:00,72.0,51.8,29.59,North,3,2.7,6.3,48,0.00,,,0.00,WUHU216WMR968SP,2013-07-12 06:06:00,
2013-07-12 01:11:00,72.0,51.8,29.59,North,11,3.3,6.3,48,0.00,,,0.00,WUHU216WMR968SP,2013-07-12 06:11:00,
2013-07-12 01:16:00,72.0,51.8,29.59,North,6,2.2,5.8,49,0.00,,,0.00,WUHU216WMR968SP,2013-07-12 06:16:00,
2013-07-12 01:21:00,71.8,51.8,29.59,NNE,24,3.1,4.9,49,0.00,,,0.00,WUHU216WMR968SP,2013-07-12 06:21:00,
2013-07-12 01:26:00,71.6,51.8,29.59,North,353,0.0,4.0,49,0.00,,,0.00,WUHU216WMR968SP,2013-07-12 06:26:00,
2013-07-12 01:31:00,71.2,51.8,29.59,North,357,0.0,4.0,49,0.00,,,0.00,WUHU216WMR968SP,2013-07-12 06:31:00,
2013-07-12 01:36:00,70.9,51.8,29.59,NNE,21,0.0,3.1,50,0.00,,,0.00,WUHU216WMR968SP,2013-07-12 06:36:00,
2013-07-12 01:41:00,70.5,50.0,29.59,North,6,2.6,4.0,51,0.00,,,0.00,WUHU216WMR968SP,2013-07-12 06:41:00,
2013-07-12 01:46:00,70.2,50.0,29.59,NNE,17,2.2,4.0,51,0.00,,,0.00,WUHU216WMR968SP,2013-07-12 06:46:00,
2013-07-12 01:51:00,70.0,51.8,29.59,NNE,13,2.5,4.0,52,0.00,,,0.00,WUHU216WMR968SP,2013-07-12 06:51:00,
2013-07-12 01:56:00,70.0,51.8,29.59,NNW,343,2.7,4.9,53,0.00,,,0.00,WUHU216WMR968SP,2013-07-12 06:56:00,
2013-07-12 02:01:00,70.0,51.8,29.59,North,7,3.0,5.4,54,0.00,,,0.00,WUHU216WMR968SP,2013-07-12 07:01:00,
2013-07-12 02:06:00,70.0,51.8,29.59,NNW,348,2.7,5.4,54,0.00,,,0.00,WUHU216WMR968SP,2013-07-12 07:06:00,
2013-07-12 02:11:00,70.0,51.8,29.59,NNE,19,2.7,4.5,54,0.00,,,0.00,WUHU216WMR968SP,2013-07-12 07:11:00,
2013-07-12 02:16:00,69.8,51.8,29.59,NNE,19,2.6,5.8,54,0.00,,,0.00,WUHU216WMR968SP,2013-07-12 07:16:00,
2013-07-12 02:21:00,69.4,51.8,29.59,NE,37,3.1,5.8,54,0.00,,,0.00,WUHU216WMR968SP,2013-07-12 07:21:00,
2013-07-12 02:26:00,69.3,51.8,29.59,North,0,2.2,4.9,54,0.00,,,0.00,WUHU216WMR968SP,2013-07-12 07:26:00,
2013-07-12 02:31:00,69.1,53.6,29.59,North,357,3.6,5.8,55,0.00,,,0.00,WUHU216WMR968SP,2013-07-12 07:31:00,
2013-07-12 02:36:00,68.9,53.6,29.59,North,5,3.6,6.3,55,0.00,,,0.00,WUHU216WMR968SP,2013-07-12 07:36:00,
2013-07-12 02:41:00,68.9,53.6,29.59,NNE,12,2.7,6.3,56,0.00,,,0.00,WUHU216WMR968SP,2013-07-12 07:41:00,
2013-07-12 02:46:00,68.7,51.8,29.59,NNW,341,0.0,5.4,57,0.00,,,0.00,WUHU216WMR968SP,2013-07-12 07:46:00,
2013-07-12 02:51:00,68.7,51.8,29.59,North,2,0.0,3.1,57,0.00,,,0.00,WUHU216WMR968SP,2013-07-12 07:51:00,
2013-07-12 02:56:00,68.7,51.8,29.59,NNE,27,2.2,4.0,57,0.00,,,0.00,WUHU216WMR968SP,2013-07-12 07:56:00,
2013-07-12 03:01:00,68.7,51.8,29.59,NNW,340,0.0,4.0,56,0.00,,,0.00,WUHU216WMR968SP,2013-07-12 08:01:00,
2013-07-12 03:06:00,68.4,51.8,29.59,NNW,345,0.0,4.0,56,0.00,,,0.00,WUHU216WMR968SP,2013-07-12 08:06:00,
2013-07-12 03:11:00,68.2,51.8,29.59,NNE,13,3.1,4.0,56,0.00,,,0.00,WUHU216WMR968SP,2013-07-12 08:11:00,
2013-07-12 03:16:00,68.0,51.8,29.59,North,353,2.2,4.0,56,0.00,,,0.00,WUHU216WMR968SP,2013-07-12 08:16:00,
2013-07-12 03:21:00,67.6,51.8,29.59,North,353,0.0,4.0,56,0.00,,,0.00,WUHU216WMR968SP,2013-07-12 08:21:00,
2013-07-12 03:26:00,67.5,51.8,29.59,NNE,23,0.0,3.1,57,0.00,,,0.00,WUHU216WMR968SP,2013-07-12 08:26:00,
2013-07-12 03:31:00,67.3,53.6,29.59,North,357,0.0,3.1,58,0.00,,,0.00,WUHU216WMR968SP,2013-07-12 08:31:00,
2013-07-12 03:36:00,67.1,53.6,29.59,NNE,29,2.7,4.0,58,0.00,,,0.00,WUHU216WMR968SP,2013-07-12 08:36:00,
2013-07-12 03:41:00,66.9,51.8,29.59,NNE,13,0.0,4.0,60,0.00,,,0.00,WUHU216WMR968SP,2013-07-12 08:41:00,
2013-07-12 03:46:00,66.7,53.6,29.59,NNE,29,0.0,4.0,63,0.00,,,0.00,WUHU216WMR968SP,2013-07-12 08:46:00,
2013-07-12 03:51:00,66.4,53.6,29.59,NNE,19,0.0,2.7,64,0.00,,,0.00,WUHU216WMR968SP,2013-07-12 08:51:00,
2013-07-12 03:56:00,66.4,53.6,29.59,North,9,2.2,3.6,65,0.00,,,0.00,WUHU216WMR968SP,2013-07-12 08:56:00,
2013-07-12 04:01:00,66.0,53.6,29.59,North,350,0.0,3.6,65,0.00,,,0.00,WUHU216WMR968SP,2013-07-12 09:01:00,
2013-07-12 04:06:00,65.8,53.6,29.59,North,350,0.0,2.7,65,0.00,,,0.00,WUHU216WMR968SP,2013-07-12 09:06:00,
2013-07-12 04:11:00,65.8,53.6,29.59,North,0,0.0,2.7,65,0.00,,,0.00,WUHU216WMR968SP,2013-07-12 09:11:00,
2013-07-12 04:16:00,65.7,53.6,29.59,North,10,2.2,4.0,65,0.00,,,0.00,WUHU216WMR968SP,2013-07-12 09:16:00,
2013-07-12 04:21:00,65.7,55.4,29.59,North,5,0.0,4.0,66,0.00,,,0.00,WUHU216WMR968SP,2013-07-12 09:21:00,
2013-07-12 04:26:00,65.5,55.4,29.59,North,2,2.2,3.6,66,0.00,,,0.00,WUHU216WMR968SP,2013-07-12 09:26:00,
2013-07-12 04:31:00,65.5,55.4,29.59,NNE,18,2.7,4.9,66,0.00,,,0.00,WUHU216WMR968SP,2013-07-12 09:31:00,
2013-07-12 04:36:00,65.3,55.4,29.59,NNE,22,2.7,4.9,66,0.00,,,0.00,WUHU216WMR968SP,2013-07-12 09:36:00,
2013-07-12 04:41:00,64.9,53.6,29.59,North,349,0.0,4.0,67,0.00,,,0.00,WUHU216WMR968SP,2013-07-12 09:41:00,
2013-07-12 04:46:00,64.8,53.6,29.59,North,349,0.0,3.6,69,0.00,,,0.00,WUHU216WMR968SP,2013-07-12 09:46:00,
2013-07-12 04:51:00,64.6,55.4,29.59,North,349,0.0,2.7,70,0.00,,,0.00,WUHU216WMR968SP,2013-07-12 09:51:00,
2013-07-12 04:56:00,64.4,55.4,29.59,North,349,0.0,2.2,70,0.00,,,0.00,WUHU216WMR968SP,2013-07-12 09:56:00,
2013-07-12 05:01:00,64.0,55.4,29.59,North,349,0.0,0.0,71,0.00,,,0.00,WUHU216WMR968SP,2013-07-12 10:01:00,
2013-07-12 05:06:00,63.9,55.4,29.59,North,349,0.0,3.1,71,0.00,,,0.00,WUHU216WMR968SP,2013-07-12 10:06:00,
2013-07-12 05:11:00,63.5,55.4,29.59,North,349,0.0,3.1,71,0.00,,,0.00,WUHU216WMR968SP,2013-07-12 10:11:00,
2013-07-12 05:16:00,63.5,55.4,29.59,North,349,0.0,2.7,71,0.00,,,0.00,WUHU216WMR968SP,2013-07-12 10:16:00,
2013-07-12 05:21:00,63.5,55.4,29.59,North,349,0.0,2.2,72,0.00,,,0.00,WUHU216WMR968SP,2013-07-12 10:21:00,
2013-07-12 05:26:00,63.5,55.4,29.59,North,349,0.0,3.1,72,0.00,,,0.00,WUHU216WMR968SP,2013-07-12 10:26:00,
2013-07-12 05:31:00,63.3,53.6,29.59,North,4,0.0,3.1,72,0.00,,,0.00,WUHU216WMR968SP,2013-07-12 10:31:00,
2013-07-12 05:36:00,63.3,53.6,29.59,NNW,344,0.0,2.7,73,0.00,,,0.00,WUHU216WMR968SP,2013-07-12 10:36:00,
2013-07-12 05:41:00,63.5,55.4,29.59,NNE,12,0.0,3.6,74,0.00,,,0.00,WUHU216WMR968SP,2013-07-12 10:41:00,
2013-07-12 05:46:00,63.7,57.2,29.59,North,353,0.0,3.6,77,0.00,,,0.00,WUHU216WMR968SP,2013-07-12 10:46:00,
2013-07-12 05:51:00,63.9,57.2,29.59,North,11,2.4,4.9,77,0.00,,,0.00,WUHU216WMR968SP,2013-07-12 10:51:00,
2013-07-12 05:56:00,63.9,57.2,29.59,NNE,30,3.6,5.8,77,0.00,,,0.00,WUHU216WMR968SP,2013-07-12 10:56:00,
2013-07-12 06:01:00,63.7,57.2,29.62,North,357,3.6,5.8,76,0.00,,,0.00,WUHU216WMR968SP,2013-07-12 11:01:00,
2013-07-12 06:06:00,63.5,57.2,29.62,North,5,3.1,4.9,76,0.00,,,0.00,WUHU216WMR968SP,2013-07-12 11:06:00,
2013-07-12 06:11:00,63.5,57.2,29.62,North,353,4.0,7.2,76,0.00,,,0.00,WUHU216WMR968SP,2013-07-12 11:11:00,
2013-07-12 06:16:00,63.7,57.2,29.62,NNW,337,3.1,7.2,76,0.00,,,0.00,WUHU216WMR968SP,2013-07-12 11:16:00,
2013-07-12 06:21:00,64.0,57.2,29.62,NNW,341,2.7,5.4,76,0.00,,,0.00,WUHU216WMR968SP,2013-07-12 11:21:00,
2013-07-12 06:26:00,64.4,57.2,29.62,NNE,19,3.6,5.4,75,0.00,,,0.00,WUHU216WMR968SP,2013-07-12 11:26:00,
2013-07-12 06:31:00,64.9,55.4,29.62,North,0,3.1,5.4,74,0.00,,,0.00,WUHU216WMR968SP,2013-07-12 11:31:00,
2013-07-12 06:36:00,65.7,57.2,29.62,NNW,342,2.7,4.0,71,0.00,,,0.00,WUHU216WMR968SP,2013-07-12 11:36:00,
2013-07-12 06:41:00,66.0,53.6,29.62,North,357,2.7,5.4,65,0.00,,,0.00,WUHU216WMR968SP,2013-07-12 11:41:00,
2013-07-12 06:46:00,66.4,53.6,29.62,North,4,3.7,5.4,64,0.00,,,0.00,WUHU216WMR968SP,2013-07-12 11:46:00,
2013-07-12 06:51:00,66.2,53.6,29.62,NNE,13,3.6,5.4,64,0.00,,,0.00,WUHU216WMR968SP,2013-07-12 11:51:00,
2013-07-12 06:56:00,66.0,53.6,29.62,North,352,3.8,6.3,65,0.00,,,0.00,WUHU216WMR968SP,2013-07-12 11:56:00,
2013-07-12 07:01:00,66.0,53.6,29.62,North,4,3.1,6.3,65,0.00,,,0.00,WUHU216WMR968SP,2013-07-12 12:01:00,
2013-07-12 07:06:00,66.2,53.6,29.62,North,8,3.1,3.6,65,0.00,,,0.00,WUHU216WMR968SP,2013-07-12 12:06:00,
2013-07-12 07:11:00,66.4,53.6,29.62,North,2,4.0,4.9,65,0.00,,,0.00,WUHU216WMR968SP,2013-07-12 12:11:00,
2013-07-12 07:16:00,66.6,53.6,29.62,NNW,331,3.1,4.9,65,0.00,,,0.00,WUHU216WMR968SP,2013-07-12 12:16:00,
2013-07-12 07:21:00,66.9,53.6,29.62,NNW,339,4.0,5.8,64,0.00,,,0.00,WUHU216WMR968SP,2013-07-12 12:21:00,
2013-07-12 07:26:00,67.5,53.6,29.62,North,11,4.4,5.8,61,0.00,,,0.00,WUHU216WMR968SP,2013-07-12 12:26:00,
2013-07-12 07:31:00,68.0,53.6,29.62,North,357,3.1,5.8,60,0.00,,,0.00,WUHU216WMR968SP,2013-07-12 12:31:00,
2013-07-12 07:36:00,68.0,53.6,29.62,North,353,4.0,5.8,59,0.00,,,0.00,WUHU216WMR968SP,2013-07-12 12:36:00,
2013-07-12 07:41:00,68.2,53.6,29.62,North,353,3.2,5.8,59,0.00,,,0.00,WUHU216WMR968SP,2013-07-12 12:41:00,
2013-07-12 07:46:00,68.4,53.6,29.65,NNW,345,3.1,5.8,59,0.00,,,0.00,WUHU216WMR968SP,2013-07-12 12:46:00,
2013-07-12 07:51:00,68.7,53.6,29.65,NW,324,2.2,6.3,58,0.00,,,0.00,WUHU216WMR968SP,2013-07-12 12:51:00,
2013-07-12 07:56:00,69.3,53.6,29.65,NNE,14,4.0,6.7,56,0.00,,,0.00,WUHU216WMR968SP,2013-07-12 12:56:00,
2013-07-12 08:01:00,69.8,51.8,29.65,NNE,26,3.7,7.2,54,0.00,,,0.00,WUHU216WMR968SP,2013-07-12 13:01:00,
2013-07-12 08:06:00,70.3,51.8,29.65,North,353,3.1,7.2,52,0.00,,,0.00,WUHU216WMR968SP,2013-07-12 13:06:00,
2013-07-12 08:11:00,70.9,51.8,29.65,North,3,4.2,6.3,49,0.00,,,0.00,WUHU216WMR968SP,2013-07-12 13:11:00,
2013-07-12 08:16:00,71.4,51.8,29.65,NNW,341,4.6,6.7,49,0.00,,,0.00,WUHU216WMR968SP,2013-07-12 13:16:00,
2013-07-12 08:21:00,72.0,51.8,29.65,NNE,12,2.7,6.7,49,0.00,,,0.00,WUHU216WMR968SP,2013-07-12 13:21:00,
2013-07-12 08:26:00,72.3,50.0,29.65,North,357,4.5,6.7,46,0.00,,,0.00,WUHU216WMR968SP,2013-07-12 13:26:00,
2013-07-12 08:31:00,72.7,51.8,29.65,North,0,5.8,6.7,46,0.00,,,0.00,WUHU216WMR968SP,2013-07-12 13:31:00,
2013-07-12 08:36:00,73.6,51.8,29.65,North,357,3.6,6.7,47,0.00,,,0.00,WUHU216WMR968SP,2013-07-12 13:36:00,
2013-07-12 08:41:00,76.5,51.8,29.65,North,352,4.0,6.7,41,0.00,,,0.00,WUHU216WMR968SP,2013-07-12 13:41:00,
2013-07-12 08:46:00,79.5,46.4,29.65,NNW,344,4.5,7.2,33,0.00,,,0.00,WUHU216WMR968SP,2013-07-12 13:46:00,
2013-07-12 08:51:00,81.1,48.2,29.65,NNE,20,3.6,8.7,32,0.00,,,0.00,WUHU216WMR968SP,2013-07-12 13:51:00,
2013-07-12 08:56:00,82.2,48.2,29.65,North,0,4.8,8.7,30,0.00,,,0.00,WUHU216WMR968SP,2013-07-12 13:56:00,
2013-07-12 09:01:00,82.9,46.4,29.65,NW,317,6.7,8.7,29,0.00,,,0.00,WUHU216WMR968SP,2013-07-12 14:01:00,
2013-07-12 09:06:00,83.5,48.2,29.65,North,3,4.3,8.7,29,0.00,,,0.00,WUHU216WMR968SP,2013-07-12 14:06:00,
2013-07-12 09:11:00,84.6,46.4,29.65,NW,326,2.2,6.7,27,0.00,,,0.00,WUHU216WMR968SP,2013-07-12 14:11:00,
2013-07-12 09:16:00,85.6,46.4,29.65,North,3,2.7,6.3,26,0.00,,,0.00,WUHU216WMR968SP,2013-07-12 14:16:00,
2013-07-12 09:21:00,86.5,44.6,29.65,North,353,2.2,5.8,24,0.00,,,0.00,WUHU216WMR968SP,2013-07-12 14:21:00,
2013-07-12 09:26:00,86.2,44.6,29.65,North,354,3.5,8.1,24,0.00,,,0.00,WUHU216WMR968SP,2013-07-12 14:26:00,
2013-07-12 09:31:00,86.2,44.6,29.65,NNW,327,2.2,8.1,24,0.00,,,0.00,WUHU216WMR968SP,2013-07-12 14:31:00,
2013-07-12 09:36:00,83.5,48.2,29.65,North,0,0.0,4.5,29,0.00,,,0.00,WUHU216WMR968SP,2013-07-12 14:36:00,
2013-07-12 09:41:00,80.4,48.2,29.65,WNW,290,0.0,4.5,33,0.00,,,0.00,WUHU216WMR968SP,2013-07-12 14:41:00,
2013-07-12 09:46:00,79.3,48.2,29.65,NW,310,3.3,5.8,35,0.00,,,0.00,WUHU216WMR968SP,2013-07-12 14:46:00,
2013-07-12 09:51:00,78.3,50.0,29.65,WNW,302,3.4,7.2,36,0.00,,,0.00,WUHU216WMR968SP,2013-07-12 14:51:00,
2013-07-12 09:56:00,78.4,50.0,29.65,NW,321,5.8,8.1,36,0.00,,,0.00,WUHU216WMR968SP,2013-07-12 14:56:00,
2013-07-12 10:01:00,79.0,48.2,29.65,North,2,4.8,8.7,35,0.00,,,0.00,WUHU216WMR968SP,2013-07-12 15:01:00,
2013-07-12 10:06:00,79.3,48.2,29.65,North,353,4.0,8.7,34,0.00,,,0.00,WUHU216WMR968SP,2013-07-12 15:06:00,
2013-07-12 10:11:00,79.5,46.4,29.65,SSW,207,4.9,8.1,32,0.00,,,0.00,WUHU216WMR968SP,2013-07-12 15:11:00,
2013-07-12 10:16:00,79.7,48.2,29.65,ENE,59,5.8,8.1,32,0.00,,,0.00,WUHU216WMR968SP,2013-07-12 15:16:00,
2013-07-12 10:21:00,80.6,46.4,29.65,NNW,343,5.0,8.1,31,0.00,,,0.00,WUHU216WMR968SP,2013-07-12 15:21:00,
2013-07-12 10:26:00,81.0,46.4,29.65,NNW,344,7.6,8.3,30,0.00,,,0.00,WUHU216WMR968SP,2013-07-12 15:26:00,
2013-07-12 10:31:00,81.0,46.4,29.65,NNW,342,5.8,10.5,31,0.00,,,0.00,WUHU216WMR968SP,2013-07-12 15:31:00,
2013-07-12 10:36:00,81.3,46.4,29.65,NNW,345,5.7,10.5,30,0.00,,,0.00,WUHU216WMR968SP,2013-07-12 15:36:00,
2013-07-12 10:41:00,80.8,46.4,29.65,NNW,333,2.7,8.3,31,0.00,,,0.00,WUHU216WMR968SP,2013-07-12 15:41:00,
2013-07-12 10:46:00,81.3,46.4,29.65,NNW,330,5.4,8.3,30,0.00,,,0.00,WUHU216WMR968SP,2013-07-12 15:46:00,
2013-07-12 10:51:00,81.3,46.4,29.65,NNW,346,7.2,8.7,30,0.00,,,0.00,WUHU216WMR968SP,2013-07-12 15:51:00,
2013-07-12 10:56:00,81.0,44.6,29.65,NNW,345,6.3,12.8,29,0.00,,,0.00,WUHU216WMR968SP,2013-07-12 15:56:00,
2013-07-12 11:01:00,81.7,44.6,29.65,North,349,3.1,12.8,27,0.00,,,0.00,WUHU216WMR968SP,2013-07-12 16:01:00,
2013-07-12 11:06:00,81.9,46.4,29.65,North,4,4.8,8.3,28,0.00,,,0.00,WUHU216WMR968SP,2013-07-12 16:06:00,
2013-07-12 11:11:00,82.8,44.6,29.65,North,357,7.0,10.1,26,0.00,,,0.00,WUHU216WMR968SP,2013-07-12 16:11:00,
2013-07-12 11:16:00,82.8,46.4,29.62,East,79,4.0,10.1,29,0.00,,,0.00,WUHU216WMR968SP,2013-07-12 16:16:00,
2013-07-12 11:21:00,82.9,44.6,29.62,West,279,6.3,8.3,26,0.00,,,0.00,WUHU216WMR968SP,2013-07-12 16:21:00,
2013-07-12 11:26:00,83.3,44.6,29.62,NNE,21,4.2,10.1,25,0.00,,,0.00,WUHU216WMR968SP,2013-07-12 16:26:00,
2013-07-12 11:31:00,83.1,44.6,29.62,NE,49,4.9,11.0,27,0.00,,,0.00,WUHU216WMR968SP,2013-07-12 16:31:00,
2013-07-12 11:36:00,82.8,42.8,29.62,North,5,4.0,11.0,25,0.00,,,0.00,WUHU216WMR968SP,2013-07-12 16:36:00,
2013-07-12 11:41:00,82.6,44.6,29.62,North,350,6.9,11.0,27,0.00,,,0.00,WUHU216WMR968SP,2013-07-12 16:41:00,
2013-07-12 11:46:00,82.9,44.6,29.62,NW,325,6.3,11.0,27,0.00,,,0.00,WUHU216WMR968SP,2013-07-12 16:46:00,
2013-07-12 11:51:00,83.3,46.4,29.62,NNW,348,5.3,11.0,26,0.00,,,0.00,WUHU216WMR968SP,2013-07-12 16:51:00,
2013-07-12 11:56:00,83.5,46.4,29.62,NNE,28,2.8,10.5,26,0.00,,,0.00,WUHU216WMR968SP,2013-07-12 16:56:00,
2013-07-12 12:01:00,83.8,48.2,29.62,North,3,3.6,6.3,29,0.00,,,0.00,WUHU216WMR968SP,2013-07-12 17:01:00,
2013-07-12 12:06:00,84.4,48.2,29.62,ENE,73,5.4,6.3,28,0.00,,,0.00,WUHU216WMR968SP,2013-07-12 17:06:00,
2013-07-12 12:11:00,83.8,42.8,29.62,NNE,21,3.0,6.3,24,0.00,,,0.00,WUHU216WMR968SP,2013-07-12 17:11:00,
2013-07-12 12:16:00,83.5,42.8,29.62,ENE,74,4.5,8.7,24,0.00,,,0.00,WUHU216WMR968SP,2013-07-12 17:16:00,
2013-07-12 12:21:00,83.7,42.8,29.62,NNE,28,4.0,8.7,23,0.00,,,0.00,WUHU216WMR968SP,2013-07-12 17:21:00,
2013-07-12 12:26:00,84.2,41.0,29.62,NNE,12,3.1,8.3,22,0.00,,,0.00,WUHU216WMR968SP,2013-07-12 17:26:00,
2013-07-12 12:31:00,83.8,39.2,29.62,North,357,3.1,5.8,21,0.00,,,0.00,WUHU216WMR968SP,2013-07-12 17:31:00,
2013-07-12 12:36:00,83.8,42.8,29.62,NNW,345,2.8,6.7,23,0.00,,,0.00,WUHU216WMR968SP,2013-07-12 17:36:00,
2013-07-12 12:41:00,84.4,42.8,29.62,North,1,2.7,8.1,24,0.00,,,0.00,WUHU216WMR968SP,2013-07-12 17:41:00,
2013-07-12 12:47:00,84.6,42.8,29.62,NNE,25,3.1,8.1,24,0.00,,,0.00,WUHU216WMR968SP,2013-07-12 17:47:00,
2013-07-12 12:52:00,83.8,42.8,29.62,NNW,343,6.7,10.1,24,0.00,,,0.00,WUHU216WMR968SP,2013-07-12 17:52:00,
2013-07-12 12:57:00,84.2,42.8,29.62,North,357,3.1,10.1,23,0.00,,,0.00,WUHU216WMR968SP,2013-07-12 17:57:00,
2013-07-12 13:02:00,84.2,42.8,29.62,NNW,340,6.7,10.1,23,0.00,,,0.00,WUHU216WMR968SP,2013-07-12 18:02:00,
2013-07-12 13:07:00,83.8,42.8,29.62,NNW,337,5.8,10.1,24,0.00,,,0.00,WUHU216WMR968SP,2013-07-12 18:07:00,
2013-07-12 13:12:00,83.7,46.4,29.62,NNE,33,3.6,8.7,26,0.00,,,0.00,WUHU216WMR968SP,2013-07-12 18:12:00,
2013-07-12 13:17:00,83.7,46.4,29.62,NW,320,4.0,5.8,26,0.00,,,0.00,WUHU216WMR968SP,2013-07-12 18:17:00,
2013-07-12 13:22:00,84.0,46.4,29.62,NW,322,3.6,5.8,26,0.00,,,0.00,WUHU216WMR968SP,2013-07-12 18:22:00,
2013-07-12 13:27:00,84.4,44.6,29.62,WNW,300,0.0,5.8,25,0.00,,,0.00,WUHU216WMR968SP,2013-07-12 18:27:00,
2013-07-12 13:32:00,84.6,42.8,29.62,NNW,332,8.1,10.5,23,0.00,,,0.00,WUHU216WMR968SP,2013-07-12 18:32:00,
2013-07-12 13:37:00,84.7,42.8,29.62,North,9,4.5,12.3,23,0.00,,,0.00,WUHU216WMR968SP,2013-07-12 18:37:00,
2013-07-12 13:42:00,84.9,39.2,29.62,NNW,329,4.9,8.7,21,0.00,,,0.00,WUHU216WMR968SP,2013-07-12 18:42:00,
2013-07-12 13:48:00,85.1,41.0,29.62,NNE,31,4.6,8.7,21,0.00,,,0.00,WUHU216WMR968SP,2013-07-12 18:48:00,
2013-07-12 13:53:00,85.1,41.0,29.62,NNE,12,4.3,11.4,21,0.00,,,0.00,WUHU216WMR968SP,2013-07-12 18:53:00,
2013-07-12 13:58:00,84.9,39.2,29.62,North,11,6.3,11.4,21,0.00,,,0.00,WUHU216WMR968SP,2013-07-12 18:58:00,
2013-07-12 14:03:00,85.1,41.0,29.59,NNE,17,4.5,8.7,20,0.00,,,0.00,WUHU216WMR968SP,2013-07-12 19:03:00,
2013-07-12 14:08:00,85.1,44.6,29.59,NE,54,2.2,7.2,23,0.00,,,0.00,WUHU216WMR968SP,2013-07-12 19:08:00,
2013-07-12 14:14:00,85.1,42.8,29.59,ESE,112,3.6,8.1,22,0.00,,,0.00,WUHU216WMR968SP,2013-07-12 19:14:00,
2013-07-12 14:19:00,85.1,46.4,29.59,ENE,72,2.5,8.1,25,0.00,,,0.00,WUHU216WMR968SP,2013-07-12 19:19:00,
2013-07-12 14:24:00,85.3,42.8,29.59,North,356,3.3,7.6,22,0.00,,,0.00,WUHU216WMR968SP,2013-07-12 19:24:00,
2013-07-12 14:29:00,85.3,44.6,29.59,North,357,4.9,8.3,23,0.00,,,0.00,WUHU216WMR968SP,2013-07-12 19:29:00,
2013-07-12 14:35:00,85.1,44.6,29.59,ENE,57,4.9,12.3,24,0.00,,,0.00,WUHU216WMR968SP,2013-07-12 19:35:00,
2013-07-12 14:40:00,85.1,44.6,29.59,NNE,26,2.2,12.3,23,0.00,,,0.00,WUHU216WMR968SP,2013-07-12 19:40:00,
2013-07-12 14:45:00,85.3,44.6,29.59,North,6,4.9,10.1,23,0.00,,,0.00,WUHU216WMR968SP,2013-07-12 19:45:00,
2013-07-12 14:50:00,85.6,46.4,29.59,NNE,17,4.6,10.1,25,0.00,,,0.00,WUHU216WMR968SP,2013-07-12 19:50:00,
2013-07-12 14:55:00,86.0,44.6,29.59,North,357,4.9,8.1,23,0.00,,,0.00,WUHU216WMR968SP,2013-07-12 19:55:00,
2013-07-12 15:00:00,85.6,44.6,29.59,NNW,339,4.0,7.6,23,0.00,,,0.00,WUHU216WMR968SP,2013-07-12 20:00:00,
2013-07-12 15:05:00,86.0,44.6,29.59,NE,49,4.7,8.7,24,0.00,,,0.00,WUHU216WMR968SP,2013-07-12 20:05:00,
2013-07-12 15:10:00,86.2,46.4,29.59,East,80,3.4,8.7,25,0.00,,,0.00,WUHU216WMR968SP,2013-07-12 20:10:00,
2013-07-12 15:15:00,86.4,44.6,29.59,North,2,3.0,7.6,24,0.00,,,0.00,WUHU216WMR968SP,2013-07-12 20:15:00,
2013-07-12 15:20:00,86.4,46.4,29.59,NE,34,3.1,7.6,25,0.00,,,0.00,WUHU216WMR968SP,2013-07-12 20:20:00,
2013-07-12 15:25:00,86.2,46.4,29.59,NNE,24,2.2,6.3,25,0.00,,,0.00,WUHU216WMR968SP,2013-07-12 20:25:00,
2013-07-12 15:30:00,86.5,46.4,29.59,NW,314,4.9,8.1,25,0.00,,,0.00,WUHU216WMR968SP,2013-07-12 20:30:00,
2013-07-12 15:35:00,86.7,44.6,29.59,North,0,0.0,8.1,24,0.00,,,0.00,WUHU216WMR968SP,2013-07-12 20:35:00,
2013-07-12 15:40:00,86.2,44.6,29.59,NNW,343,3.6,8.3,23,0.00,,,0.00,WUHU216WMR968SP,2013-07-12 20:40:00,
2013-07-12 15:45:00,86.0,42.8,29.59,North,353,3.1,8.3,22,0.00,,,0.00,WUHU216WMR968SP,2013-07-12 20:45:00,
2013-07-12 15:50:00,86.4,44.6,29.59,NNW,338,5.8,7.6,23,0.00,,,0.00,WUHU216WMR968SP,2013-07-12 20:50:00,
2013-07-12 15:56:00,88.3,42.8,29.59,North,9,3.2,7.6,21,0.00,,,0.00,WUHU216WMR968SP,2013-07-12 20:56:00,
2013-07-12 16:01:00,87.1,44.6,29.59,NNW,345,6.3,9.6,22,0.00,,,0.00,WUHU216WMR968SP,2013-07-12 21:01:00,
2013-07-12 16:06:00,86.5,42.8,29.59,NNE,13,4.5,9.6,22,0.00,,,0.00,WUHU216WMR968SP,2013-07-12 21:06:00,
2013-07-12 16:11:00,86.9,44.6,29.59,North,0,3.8,7.6,23,0.00,,,0.00,WUHU216WMR968SP,2013-07-12 21:11:00,
2013-07-12 16:16:00,86.9,44.6,29.59,ENE,59,5.4,8.3,23,0.00,,,0.00,WUHU216WMR968SP,2013-07-12 21:16:00,
2013-07-12 16:21:00,86.9,44.6,29.59,NNE,16,2.6,8.3,22,0.00,,,0.00,WUHU216WMR968SP,2013-07-12 21:21:00,
2013-07-12 16:26:00,87.3,44.6,29.59,NNE,27,2.7,5.4,23,0.00,,,0.00,WUHU216WMR968SP,2013-07-12 21:26:00,
2013-07-12 16:32:00,87.1,42.8,29.59,North,2,3.7,8.1,21,0.00,,,0.00,WUHU216WMR968SP,2013-07-12 21:32:00,
2013-07-12 16:37:00,86.7,42.8,29.59,NE,35,7.6,11.9,22,0.00,,,0.00,WUHU216WMR968SP,2013-07-12 21:37:00,
2013-07-12 16:42:00,86.7,44.6,29.59,North,356,3.3,11.9,24,0.00,,,0.00,WUHU216WMR968SP,2013-07-12 21:42:00,
2013-07-12 16:48:00,87.1,44.6,29.59,NNE,24,4.0,11.0,22,0.00,,,0.00,WUHU216WMR968SP,2013-07-12 21:48:00,
2013-07-12 16:53:00,87.1,42.8,29.59,North,350,4.9,11.0,21,0.00,,,0.00,WUHU216WMR968SP,2013-07-12 21:53:00,
2013-07-12 16:58:00,87.1,42.8,29.59,North,5,3.8,8.3,21,0.00,,,0.00,WUHU216WMR968SP,2013-07-12 21:58:00,
2013-07-12 17:03:00,86.9,42.8,29.59,North,0,2.7,8.3,21,0.00,,,0.00,WUHU216WMR968SP,2013-07-12 22:03:00,
2013-07-12 17:09:00,86.5,41.0,29.59,NNW,340,0.0,8.3,21,0.00,,,0.00,WUHU216WMR968SP,2013-07-12 22:09:00,
2013-07-12 17:14:00,86.2,42.8,29.59,NNE,22,2.6,8.3,22,0.00,,,0.00,WUHU216WMR968SP,2013-07-12 22:14:00,
2013-07-12 17:19:00,86.2,41.0,29.59,North,8,4.8,7.6,21,0.00,,,0.00,WUHU216WMR968SP,2013-07-12 22:19:00,
2013-07-12 17:25:00,86.2,42.8,29.59,NE,52,3.1,7.6,22,0.00,,,0.00,WUHU216WMR968SP,2013-07-12 22:25:00,
2013-07-12 17:30:00,86.0,42.8,29.56,NW,310,3.1,7.6,22,0.00,,,0.00,WUHU216WMR968SP,2013-07-12 22:30:00,
2013-07-12 17:36:00,86.0,42.8,29.56,NE,36,2.7,7.6,22,0.00,,,0.00,WUHU216WMR968SP,2013-07-12 22:36:00,
2013-07-12 17:41:00,86.0,42.8,29.56,NNE,13,2.7,8.3,22,0.00,,,0.00,WUHU216WMR968SP,2013-07-12 22:41:00,
2013-07-12 17:46:00,86.0,44.6,29.56,North,353,3.6,8.3,23,0.00,,,0.00,WUHU216WMR968SP,2013-07-12 22:46:00,
2013-07-12 17:51:00,85.6,42.8,29.56,North,3,3.6,8.3,22,0.00,,,0.00,WUHU216WMR968SP,2013-07-12 22:51:00,
2013-07-12 17:56:00,85.6,44.6,29.56,NE,54,2.9,8.3,23,0.00,,,0.00,WUHU216WMR968SP,2013-07-12 22:56:00,
2013-07-12 18:01:00,85.8,44.6,29.56,NE,43,3.1,8.3,23,0.00,,,0.00,WUHU216WMR968SP,2013-07-12 23:01:00,
2013-07-12 18:06:00,86.5,42.8,29.56,ENE,74,2.2,5.4,22,0.00,,,0.00,WUHU216WMR968SP,2013-07-12 23:06:00,
2013-07-12 18:11:00,87.8,44.6,29.56,NE,36,2.5,4.9,22,0.00,,,0.00,WUHU216WMR968SP,2013-07-12 23:11:00,
2013-07-12 18:17:00,89.2,44.6,29.56,North,7,3.3,8.1,21,0.00,,,0.00,WUHU216WMR968SP,2013-07-12 23:17:00,
2013-07-12 18:22:00,88.5,42.8,29.56,NNE,24,2.7,8.1,21,0.00,,,0.00,WUHU216WMR968SP,2013-07-12 23:22:00,
2013-07-12 18:27:00,88.2,42.8,29.56,ESE,106,3.6,8.3,21,0.00,,,0.00,WUHU216WMR968SP,2013-07-12 23:27:00,
2013-07-12 18:33:00,89.2,44.6,29.56,NE,49,2.7,8.3,21,0.00,,,0.00,WUHU216WMR968SP,2013-07-12 23:33:00,
2013-07-12 18:38:00,88.0,42.8,29.56,NNE,15,2.2,5.4,21,0.00,,,0.00,WUHU216WMR968SP,2013-07-12 23:38:00,
2013-07-12 18:43:00,88.0,42.8,29.56,ENE,77,3.1,7.2,21,0.00,,,0.00,WUHU216WMR968SP,2013-07-12 23:43:00,
2013-07-12 18:48:00,91.4,44.6,29.56,NNE,19,3.9,7.2,20,0.00,,,0.00,WUHU216WMR968SP,2013-07-12 23:48:00,
2013-07-12 18:53:00,92.5,44.6,29.56,NNE,21,3.1,6.3,19,0.00,,,0.00,WUHU216WMR968SP,2013-07-12 23:53:00,
2013-07-12 18:58:00,92.7,44.6,29.56,NNE,22,2.5,5.4,19,0.00,,,0.00,WUHU216WMR968SP,2013-07-12 23:58:00,
2013-07-12 19:03:00,92.5,44.6,29.56,North,11,2.9,5.8,19,0.00,,,0.00,WUHU216WMR968SP,2013-07-13 00:03:00,
2013-07-12 19:09:00,92.8,44.6,29.56,NNE,13,3.1,5.8,19,0.00,,,0.00,WUHU216WMR968SP,2013-07-13 00:09:00,
2013-07-12 19:14:00,92.7,42.8,29.59,North,353,2.4,6.3,18,0.00,,,0.00,WUHU216WMR968SP,2013-07-13 00:14:00,
2013-07-12 19:19:00,92.8,44.6,29.59,NNE,15,0.0,6.3,19,0.00,,,0.00,WUHU216WMR968SP,2013-07-13 00:19:00,
2013-07-12 19:24:00,89.8,42.8,29.59,NNW,340,0.0,4.0,19,0.00,,,0.00,WUHU216WMR968SP,2013-07-13 00:24:00,
2013-07-12 19:29:00,86.9,44.6,29.59,NE,37,0.0,4.0,22,0.00,,,0.00,WUHU216WMR968SP,2013-07-13 00:29:00,
2013-07-12 19:34:00,84.2,44.6,29.59,North,2,0.0,4.0,25,0.00,,,0.00,WUHU216WMR968SP,2013-07-13 00:34:00,
2013-07-12 19:40:00,82.0,46.4,29.59,North,1,0.0,2.7,29,0.00,,,0.00,WUHU216WMR968SP,2013-07-13 00:40:00,
2013-07-12 19:45:00,80.6,46.4,29.59,North,1,0.0,2.2,31,0.00,,,0.00,WUHU216WMR968SP,2013-07-13 00:45:00,
2013-07-12 19:50:00,79.7,48.2,29.59,North,1,0.0,0.0,32,0.00,,,0.00,WUHU216WMR968SP,2013-07-13 00:50:00,
2013-07-12 19:55:00,78.8,46.4,29.59,NNE,17,0.0,3.1,33,0.00,,,0.00,WUHU216WMR968SP,2013-07-13 00:55:00,
2013-07-12 20:00:00,78.1,48.2,29.59,NNE,12,0.0,3.1,35,0.00,,,0.00,WUHU216WMR968SP,2013-07-13 01:00:00,
2013-07-12 20:05:00,77.4,48.2,29.59,NNE,12,0.0,2.7,37,0.00,,,0.00,WUHU216WMR968SP,2013-07-13 01:05:00,
2013-07-12 20:10:00,76.8,50.0,29.59,NNE,12,0.0,0.0,39,0.00,,,0.00,WUHU216WMR968SP,2013-07-13 01:10:00,
2013-07-12 20:16:00,76.5,51.8,29.59,NNE,12,0.0,0.0,41,0.00,,,0.00,WUHU216WMR968SP,2013-07-13 01:16:00,
2013-07-12 20:20:00,75.9,50.0,29.59,NNW,334,0.0,0.0,41,0.00,,,0.00,WUHU216WMR968SP,2013-07-13 01:20:00,
2013-07-12 20:25:00,75.4,50.0,29.59,NE,48,0.0,0.0,41,0.00,,,0.00,WUHU216WMR968SP,2013-07-13 01:25:00,
2013-07-12 20:31:00,75.2,50.0,29.59,NNE,15,0.0,4.0,41,0.00,,,0.00,WUHU216WMR968SP,2013-07-13 01:31:00,
2013-07-12 20:36:00,75.0,50.0,29.59,NNE,16,0.0,4.0,42,0.00,,,0.00,WUHU216WMR968SP,2013-07-13 01:36:00,
2013-07-12 20:41:00,74.8,50.0,29.59,NNE,16,0.0,0.0,42,0.00,,,0.00,WUHU216WMR968SP,2013-07-13 01:41:00,
2013-07-12 20:46:00,75.0,50.0,29.59,NNE,16,0.0,0.0,42,0.00,,,0.00,WUHU216WMR968SP,2013-07-13 01:46:00,
2013-07-12 20:51:00,75.0,50.0,29.59,NNE,16,0.0,2.7,42,0.00,,,0.00,WUHU216WMR968SP,2013-07-13 01:51:00,
2013-07-12 20:56:00,75.0,50.0,29.59,NNE,16,0.0,3.1,42,0.00,,,0.00,WUHU216WMR968SP,2013-07-13 01:56:00,
2013-07-12 21:01:00,74.5,50.0,29.59,NNE,16,0.0,3.1,42,0.00,,,0.00,WUHU216WMR968SP,2013-07-13 02:01:00,
2013-07-12 21:06:00,74.1,50.0,29.59,NNE,16,0.0,0.0,43,0.00,,,0.00,WUHU216WMR968SP,2013-07-13 02:06:00,
2013-07-12 21:11:00,73.6,50.0,29.59,NNE,16,0.0,0.0,43,0.00,,,0.00,WUHU216WMR968SP,2013-07-13 02:11:00,
2013-07-12 21:16:00,73.2,50.0,29.59,NNE,16,0.0,0.0,44,0.00,,,0.00,WUHU216WMR968SP,2013-07-13 02:16:00,
2013-07-12 21:21:00,73.0,51.8,29.59,NNE,16,0.0,2.2,45,0.00,,,0.00,WUHU216WMR968SP,2013-07-13 02:21:00,
2013-07-12 21:27:00,73.4,51.8,29.59,NE,45,0.0,2.7,45,0.00,,,0.00,WUHU216WMR968SP,2013-07-13 02:27:00,
2013-07-12 21:32:00,73.8,50.0,29.59,NE,45,0.0,2.7,44,0.00,,,0.00,WUHU216WMR968SP,2013-07-13 02:32:00,
2013-07-12 21:37:00,73.9,50.0,29.59,NE,45,0.0,0.0,44,0.00,,,0.00,WUHU216WMR968SP,2013-07-13 02:37:00,
2013-07-12 21:42:00,73.8,50.0,29.59,NE,45,0.0,0.0,44,0.00,,,0.00,WUHU216WMR968SP,2013-07-13 02:42:00,
2013-07-12 21:48:00,73.6,50.0,29.62,NE,45,0.0,2.2,44,0.00,,,0.00,WUHU216WMR968SP,2013-07-13 02:48:00,
2013-07-12 21:53:00,73.4,50.0,29.62,NE,45,0.0,3.1,43,0.00,,,0.00,WUHU216WMR968SP,2013-07-13 02:53:00,
2013-07-12 21:58:00,72.7,50.0,29.62,NE,45,0.0,2.7,44,0.00,,,0.00,WUHU216WMR968SP,2013-07-13 02:58:00,
2013-07-12 22:03:00,72.1,50.0,29.62,NE,45,0.0,0.0,45,0.00,,,0.00,WUHU216WMR968SP,2013-07-13 03:03:00,
2013-07-12 22:08:00,72.0,50.0,29.62,NNE,25,0.0,3.1,47,0.00,,,0.00,WUHU216WMR968SP,2013-07-13 03:08:00,
2013-07-12 22:13:00,71.8,51.8,29.62,NNE,25,0.0,3.1,48,0.00,,,0.00,WUHU216WMR968SP,2013-07-13 03:13:00,
2013-07-12 22:18:00,71.8,51.8,29.62,NNE,25,0.0,2.2,48,0.00,,,0.00,WUHU216WMR968SP,2013-07-13 03:18:00,
2013-07-12 22:23:00,71.6,51.8,29.62,NNE,24,0.0,2.7,49,0.00,,,0.00,WUHU216WMR968SP,2013-07-13 03:23:00,
2013-07-12 22:28:00,71.4,51.8,29.62,NNE,24,0.0,2.7,49,0.00,,,0.00,WUHU216WMR968SP,2013-07-13 03:28:00,
2013-07-12 22:33:00,71.1,51.8,29.62,NNE,23,0.0,2.2,49,0.00,,,0.00,WUHU216WMR968SP,2013-07-13 03:33:00,
2013-07-12 22:39:00,70.7,51.8,29.62,NNE,23,0.0,2.2,49,0.00,,,0.00,WUHU216WMR968SP,2013-07-13 03:39:00,
2013-07-12 22:44:00,70.5,50.0,29.62,NNE,23,0.0,0.0,49,0.00,,,0.00,WUHU216WMR968SP,2013-07-13 03:44:00,
2013-07-12 22:49:00,70.5,51.8,29.62,NNE,23,0.0,2.7,52,0.00,,,0.00,WUHU216WMR968SP,2013-07-13 03:49:00,
2013-07-12 22:54:00,70.5,51.8,29.62,NNE,20,0.0,3.6,52,0.00,,,0.00,WUHU216WMR968SP,2013-07-13 03:54:00,
2013-07-12 22:59:00,70.3,51.8,29.62,NNW,337,0.0,3.6,52,0.00,,,0.00,WUHU216WMR968SP,2013-07-13 03:59:00,
2013-07-12 23:01:00,70.3,51.8,29.62,NNE,17,0.0,3.6,52,0.00,,,0.00,WUHU216WMR968SP,2013-07-13 04:01:00,
2013-07-12 23:02:00,70.3,51.8,29.62,North,349,2.7,3.6,52,0.00,,,0.00,WUHU216WMR968SP,2013-07-13 04:02:00,
2013-07-12 23:07:00,70.0,50.0,29.62,North,349,0.0,3.6,51,0.00,,,0.00,WUHU216WMR968SP,2013-07-13 04:07:00,
2013-07-12 23:12:00,69.6,51.8,29.62,North,357,0.0,3.6,52,0.00,,,0.00,WUHU216WMR968SP,2013-07-13 04:12:00,
2013-07-12 23:17:00,69.4,51.8,29.62,North,11,0.0,3.6,52,0.00,,,0.00,WUHU216WMR968SP,2013-07-13 04:17:00,
2013-07-12 23:22:00,69.4,51.8,29.62,NNE,28,0.0,4.0,53,0.00,,,0.00,WUHU216WMR968SP,2013-07-13 04:22:00,
2013-07-12 23:27:00,69.1,51.8,29.62,NNE,22,0.0,4.0,53,0.00,,,0.00,WUHU216WMR968SP,2013-07-13 04:27:00,
2013-07-12 23:32:00,69.1,51.8,29.62,North,2,2.5,3.6,53,0.00,,,0.00,WUHU216WMR968SP,2013-07-13 04:32:00,
2013-07-12 23:37:00,68.9,51.8,29.62,NNE,16,0.0,3.6,54,0.00,,,0.00,WUHU216WMR968SP,2013-07-13 04:37:00,
2013-07-12 23:42:00,68.7,50.0,29.62,NNE,20,0.0,3.1,54,0.00,,,0.00,WUHU216WMR968SP,2013-07-13 04:42:00,
2013-07-12 23:47:00,68.7,51.8,29.62,NNW,345,0.0,3.1,55,0.00,,,0.00,WUHU216WMR968SP,2013-07-13 04:47:00,
2013-07-12 23:52:00,68.9,53.6,29.62,NE,49,0.0,4.0,55,0.00,,,0.00,WUHU216WMR968SP,2013-07-13 04:52:00,
2013-07-12 23:57:00,68.9,51.8,29.62,NE,49,0.0,4.0,54,0.00,,,0.00,WUHU216WMR968SP,2013-07-13 04:57:00,